SDM1001 UUWW-UWGG

Flight info

Callsign SDM1001
Flight time 0h 49m
Altitude 33000
Route K0778F330 KOGOM3A KOGOM L94 USTOK USTOK2P
Aircraft A20N/M-SDE2E3FGHIRWXY/LB1

Departure

Time 2026-04-30 13:41
Airport Vnukovo International Airport (UUWW)

Arrival

Time 2026-04-30 14:31
Airport Nizhny Novgorod / Strigino International Airport (UWGG)
Time Latitude Longitude Altitude Speed Heading
2026-04-30 13:08 55.60144 37.28143 679 ft 0 kts 36°
2026-04-30 13:22 55.60126 37.28120 678 ft 2 kts 29°
2026-04-30 13:22 55.60111 37.28108 676 ft 2 kts 19°
2026-04-30 13:22 55.60083 37.28126 679 ft 2 kts 306°
2026-04-30 13:23 55.60074 37.28151 676 ft 2 kts 278°
2026-04-30 13:23 55.60076 37.28197 677 ft 1 kts 262°
2026-04-30 13:24 55.60076 37.28198 679 ft 0 kts 263°
2026-04-30 13:26 55.60076 37.28192 679 ft 1 kts 264°
2026-04-30 13:27 55.60076 37.28084 679 ft 5 kts 275°
2026-04-30 13:28 55.60091 37.27847 678 ft 9 kts 229°
2026-04-30 13:28 55.60043 37.27766 678 ft 3 kts 218°
2026-04-30 13:28 55.60015 37.27736 679 ft 6 kts 215°
2026-04-30 13:29 55.59949 37.27604 679 ft 9 kts 241°
2026-04-30 13:29 55.59832 37.27372 675 ft 18 kts 227°
2026-04-30 13:30 55.59622 37.26981 666 ft 12 kts 227°
2026-04-30 13:31 55.59575 37.26893 666 ft 3 kts 225°
2026-04-30 13:31 55.59452 37.26854 667 ft 3 kts 223°
2026-04-30 13:32 55.59448 37.26846 666 ft 0 kts 223°
2026-04-30 13:32 55.59445 37.26842 666 ft 2 kts 223°
2026-04-30 13:33 55.59383 37.26743 668 ft 10 kts 222°
2026-04-30 13:33 55.59256 37.26556 668 ft 12 kts 210°
2026-04-30 13:34 55.59168 37.26485 668 ft 16 kts 203°
2026-04-30 13:34 55.58861 37.26248 653 ft 0 kts 203°
2026-04-30 13:35 55.58847 37.26234 653 ft 4 kts 212°
2026-04-30 13:35 55.58814 37.26127 654 ft 0 kts 249°
2026-04-30 13:38 55.58809 37.26105 653 ft 4 kts 249°
2026-04-30 13:38 55.58777 37.25938 652 ft 8 kts 275°
2026-04-30 13:39 55.58816 37.25888 652 ft 0 kts 22°
2026-04-30 13:40 55.58866 37.25925 653 ft 33 kts 23°
2026-04-30 13:40 55.59292 37.26249 668 ft 98 kts 23°
2026-04-30 13:40 55.60084 37.26853 682 ft 147 kts 22°
2026-04-30 13:41 55.61061 37.27633 1111 ft 154 kts 24°
2026-04-30 13:41 55.62022 37.28468 1780 ft 156 kts 24°
2026-04-30 13:41 55.62994 37.29351 2479 ft 157 kts 24°
2026-04-30 13:41 55.64042 37.30147 2907 ft 173 kts 19°
2026-04-30 13:42 55.65228 37.30944 3348 ft 192 kts 19°
2026-04-30 13:42 55.66425 37.32190 3954 ft 210 kts 45°
2026-04-30 13:42 55.66842 37.37198 5910 ft 223 kts 110°
2026-04-30 13:43 55.66202 37.39827 6620 ft 244 kts 116°
2026-04-30 13:43 55.65133 37.42371 6948 ft 273 kts 140°
2026-04-30 13:43 55.63479 37.44101 6999 ft 278 kts 156°
2026-04-30 13:43 55.61723 37.45512 7000 ft 278 kts 156°
2026-04-30 13:44 55.59966 37.46953 6999 ft 278 kts 156°
2026-04-30 13:44 55.58309 37.48694 6991 ft 279 kts 137°
2026-04-30 13:44 55.57221 37.51519 7212 ft 282 kts 108°
2026-04-30 13:44 55.56856 37.54927 7767 ft 281 kts 95°
2026-04-30 13:45 55.56894 37.61733 8037 ft 277 kts 72°
2026-04-30 13:45 55.57691 37.64763 8121 ft 275 kts 56°
2026-04-30 13:45 55.58692 37.67646 8201 ft 275 kts 57°
2026-04-30 13:46 55.59670 37.70554 8279 ft 276 kts 57°
2026-04-30 13:46 55.60637 37.73473 8374 ft 276 kts 58°
2026-04-30 13:46 55.61604 37.76415 8447 ft 276 kts 58°
2026-04-30 13:46 55.62565 37.79346 8546 ft 276 kts 58°
2026-04-30 13:47 55.63529 37.82290 8629 ft 277 kts 58°
2026-04-30 13:47 55.64430 37.85298 8698 ft 278 kts 69°
2026-04-30 13:47 55.64721 37.88683 8790 ft 282 kts 92°
2026-04-30 13:47 55.64345 37.92099 8878 ft 284 kts 102°
2026-04-30 13:48 55.63894 37.95521 9053 ft 286 kts 102°
2026-04-30 13:48 55.63450 37.98969 9754 ft 288 kts 101°
2026-04-30 13:48 55.63009 38.02420 10549 ft 291 kts 101°
2026-04-30 13:48 55.62556 38.05975 11331 ft 301 kts 101°
2026-04-30 13:49 55.62085 38.09661 12033 ft 316 kts 101°
2026-04-30 13:49 55.61583 38.13586 12402 ft 338 kts 102°
2026-04-30 13:49 55.61054 38.17705 13169 ft 346 kts 102°
2026-04-30 13:49 55.60530 38.21825 14074 ft 349 kts 101°
2026-04-30 13:50 55.59995 38.26031 14915 ft 352 kts 102°
2026-04-30 13:50 55.58910 38.34524 16641 ft 356 kts 102°
2026-04-30 13:50 55.58358 38.38816 17551 ft 357 kts 102°
2026-04-30 13:51 55.58025 38.43139 18476 ft 356 kts 88°
2026-04-30 13:51 55.58424 38.47412 19305 ft 352 kts 69°
2026-04-30 13:51 55.59492 38.51261 20146 ft 348 kts 57°
2026-04-30 13:51 55.60726 38.54931 21020 ft 346 kts 58°
2026-04-30 13:52 55.61950 38.58591 21784 ft 349 kts 58°
2026-04-30 13:52 55.63213 38.62383 21992 ft 366 kts 58°
2026-04-30 13:52 55.64532 38.66360 22174 ft 383 kts 58°
2026-04-30 13:52 55.65903 38.70503 22507 ft 394 kts 58°
2026-04-30 13:53 55.67290 38.74709 23139 ft 398 kts 58°
2026-04-30 13:53 55.68692 38.78970 23774 ft 402 kts 58°
2026-04-30 13:53 55.70110 38.83287 24315 ft 406 kts 58°
2026-04-30 13:53 55.71528 38.87613 24895 ft 407 kts 58°
2026-04-30 13:54 55.73008 38.91915 25415 ft 410 kts 53°
2026-04-30 13:54 55.74773 38.95887 25937 ft 411 kts 46°
2026-04-30 13:54 55.76745 38.99576 26438 ft 413 kts 45°
2026-04-30 13:54 55.78700 39.03246 26939 ft 416 kts 45°
2026-04-30 13:55 55.80687 39.07001 27429 ft 418 kts 45°
2026-04-30 13:55 55.82684 39.10793 27897 ft 421 kts 46°
2026-04-30 13:55 55.84531 39.14883 28353 ft 425 kts 53°
2026-04-30 13:55 55.86099 39.19359 28783 ft 429 kts 59°
2026-04-30 13:56 55.87439 39.24141 29200 ft 433 kts 62°
2026-04-30 13:56 55.88781 39.28962 29617 ft 436 kts 61°
2026-04-30 13:56 55.90142 39.33821 30017 ft 439 kts 61°
2026-04-30 13:56 55.91506 39.38704 30388 ft 441 kts 62°
2026-04-30 13:57 55.92877 39.43629 30681 ft 445 kts 62°
2026-04-30 13:57 55.94254 39.48598 30974 ft 449 kts 62°
2026-04-30 13:57 55.95639 39.53610 31278 ft 452 kts 62°
2026-04-30 13:57 55.97028 39.58653 31640 ft 453 kts 62°
2026-04-30 13:58 55.98418 39.63710 32026 ft 454 kts 62°
2026-04-30 13:58 56.01272 39.73798 32780 ft 455 kts 60°
2026-04-30 13:58 56.02768 39.78792 33098 ft 456 kts 60°
2026-04-30 13:59 56.04260 39.83774 33208 ft 454 kts 60°
2026-04-30 13:59 56.07203 39.93703 33212 ft 454 kts 61°
2026-04-30 14:00 56.10139 40.03717 33215 ft 454 kts 61°
2026-04-30 14:00 56.14527 40.18787 33209 ft 455 kts 61°
2026-04-30 14:01 56.17443 40.28853 33212 ft 455 kts 61°
2026-04-30 14:01 56.20359 40.38962 33214 ft 456 kts 62°
2026-04-30 14:02 56.21814 40.44023 33050 ft 456 kts 62°
2026-04-30 14:02 56.23266 40.49084 32688 ft 455 kts 62°
2026-04-30 14:02 56.24636 40.54201 32297 ft 454 kts 68°
2026-04-30 14:02 56.25566 40.59626 31917 ft 455 kts 77°
2026-04-30 14:03 56.25994 40.65193 31527 ft 443 kts 86°
2026-04-30 14:03 56.25932 40.70641 31157 ft 427 kts 94°
2026-04-30 14:03 56.25709 40.75805 30793 ft 412 kts 93°
2026-04-30 14:03 56.25507 40.80871 30436 ft 399 kts 93°
2026-04-30 14:04 56.25313 40.85799 30046 ft 393 kts 93°
2026-04-30 14:04 56.25117 40.90695 29604 ft 391 kts 93°
2026-04-30 14:04 56.24917 40.95560 29168 ft 389 kts 93°
2026-04-30 14:04 56.24715 41.00421 28746 ft 388 kts 94°
2026-04-30 14:05 56.24510 41.05232 28310 ft 386 kts 94°
2026-04-30 14:05 56.24304 41.10034 27900 ft 383 kts 94°
2026-04-30 14:05 56.24097 41.14806 27488 ft 381 kts 94°
2026-04-30 14:05 56.23890 41.19538 27086 ft 378 kts 94°
2026-04-30 14:06 56.23686 41.24174 26691 ft 376 kts 95°
2026-04-30 14:06 56.23270 41.33490 25914 ft 371 kts 95°
2026-04-30 14:07 56.22852 41.42707 25154 ft 369 kts 95°
2026-04-30 14:07 56.22642 41.47282 24778 ft 367 kts 96°
2026-04-30 14:07 56.22431 41.51841 24412 ft 366 kts 96°
2026-04-30 14:08 56.22005 41.60917 23670 ft 363 kts 96°
2026-04-30 14:08 56.21791 41.65424 23232 ft 361 kts 96°
2026-04-30 14:08 56.21363 41.74306 22379 ft 353 kts 96°
2026-04-30 14:09 56.21149 41.78692 21969 ft 352 kts 96°
2026-04-30 14:09 56.20935 41.83051 21557 ft 349 kts 96°
2026-04-30 14:09 56.20509 41.91643 20751 ft 343 kts 96°
2026-04-30 14:10 56.20295 41.95900 20365 ft 341 kts 96°
2026-04-30 14:10 56.20082 42.00116 19970 ft 337 kts 96°
2026-04-30 14:10 56.19870 42.04282 19588 ft 334 kts 96°
2026-04-30 14:10 56.19658 42.08433 19206 ft 334 kts 96°
2026-04-30 14:11 56.19445 42.12569 18832 ft 331 kts 96°
2026-04-30 14:11 56.19226 42.16682 18458 ft 329 kts 96°
2026-04-30 14:11 56.19007 42.20757 18035 ft 327 kts 96°
2026-04-30 14:11 56.18787 42.24810 17608 ft 325 kts 96°
2026-04-30 14:12 56.18569 42.28839 17182 ft 323 kts 96°
2026-04-30 14:12 56.18354 42.32783 16788 ft 320 kts 96°
2026-04-30 14:12 56.18134 42.36800 16373 ft 318 kts 96°
2026-04-30 14:12 56.17990 42.39408 16102 ft 316 kts 96°
2026-04-30 14:13 56.17703 42.44585 15582 ft 315 kts 96°
2026-04-30 14:13 56.17485 42.48507 15192 ft 314 kts 96°
2026-04-30 14:13 56.17266 42.52396 14808 ft 313 kts 96°
2026-04-30 14:13 56.17048 42.56265 14429 ft 311 kts 96°
2026-04-30 14:14 56.16830 42.60108 14048 ft 308 kts 96°
2026-04-30 14:14 56.16614 42.63907 13629 ft 303 kts 96°
2026-04-30 14:14 56.16400 42.67634 13215 ft 299 kts 96°
2026-04-30 14:14 56.16185 42.71365 12799 ft 302 kts 96°
2026-04-30 14:15 56.15968 42.75114 12391 ft 302 kts 96°
2026-04-30 14:15 56.15750 42.78856 11985 ft 300 kts 96°
2026-04-30 14:15 56.15533 42.82566 11587 ft 298 kts 96°
2026-04-30 14:15 56.15317 42.86245 11192 ft 295 kts 96°
2026-04-30 14:16 56.15101 42.89896 10806 ft 293 kts 96°
2026-04-30 14:16 56.14885 42.93528 10421 ft 291 kts 96°
2026-04-30 14:16 56.14673 42.97079 10040 ft 289 kts 96°
2026-04-30 14:16 56.14458 43.00651 9623 ft 287 kts 96°
2026-04-30 14:17 56.14241 43.04247 9200 ft 285 kts 96°
2026-04-30 14:17 56.14030 43.07724 8792 ft 283 kts 96°
2026-04-30 14:17 56.13816 43.11222 8393 ft 281 kts 96°
2026-04-30 14:17 56.13604 43.14699 7993 ft 279 kts 96°
2026-04-30 14:18 56.13391 43.18160 7596 ft 280 kts 96°
2026-04-30 14:18 56.12880 43.21506 7203 ft 279 kts 118°
2026-04-30 14:18 56.10208 43.26397 6535 ft 271 kts 140°
2026-04-30 14:19 56.07344 43.30768 6465 ft 276 kts 140°
2026-04-30 14:19 56.05894 43.32991 6351 ft 271 kts 140°
2026-04-30 14:19 56.04492 43.35147 6068 ft 260 kts 139°
2026-04-30 14:20 56.03149 43.37213 5805 ft 249 kts 139°
2026-04-30 14:20 56.01859 43.39193 5531 ft 240 kts 139°
2026-04-30 14:20 55.99785 43.42375 5107 ft 234 kts 139°
2026-04-30 14:21 55.98677 43.44467 4838 ft 231 kts 120°
2026-04-30 14:21 55.98119 43.47105 4563 ft 226 kts 100°
2026-04-30 14:21 55.97469 43.52585 4033 ft 225 kts 101°
2026-04-30 14:22 55.97133 43.55307 3769 ft 224 kts 101°
2026-04-30 14:22 55.96465 43.60652 3237 ft 218 kts 101°
2026-04-30 14:22 55.96136 43.63275 3022 ft 213 kts 101°
2026-04-30 14:23 55.96518 43.67877 3002 ft 188 kts 45°
2026-04-30 14:23 55.98741 43.69540 2991 ft 162 kts 11°
2026-04-30 14:24 56.00715 43.70344 3003 ft 137 kts 11°
2026-04-30 14:24 56.01669 43.70731 2996 ft 139 kts 11°
2026-04-30 14:25 56.03556 43.71496 2997 ft 140 kts 12°
2026-04-30 14:25 56.05452 43.72234 3005 ft 139 kts 10°
2026-04-30 14:26 56.07357 43.72906 3002 ft 140 kts 10°
2026-04-30 14:26 56.08309 43.73246 2999 ft 139 kts 10°
2026-04-30 14:26 56.10203 43.73930 2952 ft 137 kts 10°
2026-04-30 14:27 56.11135 43.74269 2764 ft 137 kts 10°
2026-04-30 14:27 56.12083 43.74613 2441 ft 143 kts 10°
2026-04-30 14:27 56.13053 43.74967 2146 ft 140 kts 10°
2026-04-30 14:28 56.14821 43.75609 1726 ft 124 kts
2026-04-30 14:28 56.15679 43.75921 1537 ft 125 kts
2026-04-30 14:28 56.16530 43.76241 1360 ft 125 kts 10°
2026-04-30 14:28 56.17379 43.76563 1109 ft 124 kts 10°
2026-04-30 14:29 56.19086 43.77174 809 ft 126 kts
2026-04-30 14:29 56.20821 43.77797 474 ft 126 kts 10°
2026-04-30 14:30 56.23196 43.78652 268 ft 72 kts 12°
2026-04-30 14:31 56.23872 43.78908 266 ft 29 kts 12°
2026-04-30 14:31 56.24096 43.79010 267 ft 7 kts 41°
2026-04-30 14:31 56.24107 43.79110 266 ft 10 kts 105°
2026-04-30 14:32 56.24100 43.79138 266 ft 0 kts 115°
2026-04-30 14:32 56.24094 43.79160 266 ft 5 kts 117°
2026-04-30 14:33 56.24065 43.79228 265 ft 9 kts 137°
2026-04-30 14:33 56.23897 43.79269 265 ft 16 kts 182°
2026-04-30 14:33 56.23774 43.79259 265 ft 19 kts 182°
2026-04-30 14:34 56.23683 43.79252 265 ft 8 kts 182°
2026-04-30 14:34 56.23612 43.79246 265 ft 12 kts 182°
2026-04-30 14:34 56.23515 43.79237 265 ft 16 kts 185°
2026-04-30 14:34 56.23396 43.79201 265 ft 19 kts 191°
2026-04-30 14:35 56.23183 43.79125 266 ft 17 kts 192°
2026-04-30 14:35 56.23077 43.79084 266 ft 1 kts 192°
2026-04-30 14:35 56.23055 43.79076 266 ft 5 kts 192°
2026-04-30 14:36 56.23004 43.79057 266 ft 10 kts 191°
2026-04-30 14:36 56.22926 43.79028 266 ft 13 kts 192°
2026-04-30 14:36 56.22824 43.78990 266 ft 17 kts 191°
2026-04-30 14:36 56.22711 43.78950 266 ft 15 kts 192°
2026-04-30 14:37 56.22602 43.78911 266 ft 14 kts 189°
2026-04-30 14:37 56.22537 43.78891 266 ft 11 kts 189°
2026-04-30 14:37 56.22462 43.78862 266 ft 9 kts 201°
2026-04-30 14:37 56.22398 43.78808 266 ft 12 kts 192°
2026-04-30 14:38 56.22306 43.78773 266 ft 15 kts 191°
2026-04-30 14:38 56.22207 43.78739 266 ft 13 kts 191°
2026-04-30 14:38 56.22162 43.78723 266 ft 7 kts 191°
2026-04-30 14:38 56.22098 43.78700 266 ft 11 kts 191°
2026-04-30 14:39 56.22029 43.78694 266 ft 6 kts 130°
2026-04-30 14:39 56.22014 43.78779 265 ft 9 kts 101°
2026-04-30 14:39 56.21995 43.78850 265 ft 6 kts 135°
2026-04-30 14:40 56.21971 43.78912 265 ft 0 kts 114°